Regional Weather Roundup
Issued by NWS

Home | Current Version | Previous Version | Text Only | Print | Product List | Glossary Off
Versions: 1 2 3 4 5 6 7 8 9 10 11 12 13 14 15 16 17 18 19 20 21 22 23 24 25 26 27 28 29 30 31 32 33 34 35 36 37 38 39 40 41 42 43 44 45 46 47 48 49 50

040
ASUS43 KOAX 250802
RWRNE

WEATHER ROUNDUP FOR NEBRASKA
NATIONAL WEATHER SERVICE OMAHA NE
300 AM CDT WED APR 25 2018

NOTES: SATELLITE DATA IS BEING USED TO AUGMENT CLOUD COVER ABOVE
       12000 FEET.
       "FAIR" INDICATES FEW OR NO CLOUDS BELOW 12,000 FEET WITH NO
       SIGNIFICANT WEATHER AND/OR OBSTRUCTIONS TO VISIBILITY.


NEZ001>004-019>022-054>056-250900-
NEBRASKA PANHANDLE

CITY           SKY/WX    TMP DP  RH WIND       PRES   REMARKS
SCOTTSBLUFF    CLEAR     28  27  96 N5        30.40F WCI  23
ALLIANCE       PTCLDY    26  26 100 W7        30.38F WCI  18
CHADRON        CLEAR     24  23  96 SW6       30.40F WCI  17
GORDON         FAIR      32  28  86 W6        30.37F WCI  26
KIMBALL        MOCLDY    30  29  96 W6        30.39F WCI  24
SIDNEY         PTCLDY    28  26  92 W9        30.40F WCI  19
$$

NEZ057>060-069>072-079>082-250900-
SOUTHWEST NEBRASKA

CITY           SKY/WX    TMP DP  RH WIND       PRES   REMARKS
NORTH PLATTE   CLOUDY    38  34  85 N10       30.36F WCI  31
IMPERIAL       CLOUDY    37  32  82 NW13      30.38F WCI  29
LEXINGTON      DRIZZLE   39  36  86 NW12      30.33F WCI  32
MCCOOK         CLOUDY    38  34  85 N14       30.35F WCI  30
OGALLALA       CLOUDY    37  32  81 NW9       30.38F WCI  31
$$

NEZ005>010-023>029-035>040-094-250900-
NORTH CENTRAL NEBRASKA

CITY           SKY/WX    TMP DP  RH WIND       PRES   REMARKS
VALENTINE      CLOUDY    38  33  82 NW10      30.36F WCI  31
AINSWORTH      CLOUDY    38  36  90 NW8       30.35F WCI  32
BROKEN BOW     CLOUDY    39  35  86 NW16      30.32F WCI  30
O`NEILL        CLOUDY    41  39  91 NW7       30.33F
ORD            LGT RAIN  40  38  93 NW10      30.31F WCI  33
THEDFORD       CLOUDY    37  35  90 NW8       30.36F WCI  31
$$

NEZ041-046>049-061>064-073>077-083>087-250900-
SOUTH CENTRAL NEBRASKA

CITY           SKY/WX    TMP DP  RH WIND       PRES   REMARKS
GRAND ISLAND   CLOUDY    42  38  85 N18G28    30.29F
AURORA         CLOUDY    42  40  93 N17G23    30.27S
HASTINGS       CLOUDY    41  40  96 N16       30.29R
HEBRON         CLOUDY    45  43  93 N10G17    30.23F FOG
HOLDREGE       CLOUDY    39  37  94 N12G18    30.30F WCI  31
KEARNEY        CLOUDY    40  38  93 N12       30.31F WCI  33
YORK           MIX PCPN  41  41 100 N14       30.26R
$$

NEZ011>018-030>034-042>045-250900-
NORTHEAST NEBRASKA

CITY           SKY/WX    TMP DP  RH WIND       PRES   REMARKS
NORFOLK        LGT RAIN  42  39  89 N17       30.28S
ALBION         CLOUDY    42  39  90 N13       30.30F
BLAIR          CLOUDY    45  43  93 N10G17    30.21F
COLUMBUS       CLOUDY    43  40  89 N15       30.27F
FREMONT        CLOUDY    46  43  90 N8        30.23F
TEKAMAH        CLOUDY    45  42  89 N16       30.23S
WAYNE          RAIN      43  42  97 N13       30.27F
$$

NEZ050>053-065>068-078-088>093-250900-
SOUTHEAST NEBRASKA

CITY           SKY/WX    TMP DP  RH WIND       PRES   REMARKS
LINCOLN        CLOUDY    45  43  93 N15       30.24F
OMAHA EPPLEY   CLOUDY    47  44  90 N13       30.21R
BEATRICE       CLOUDY    49  48  96 N9        30.21F
FALLS CITY     CLOUDY    51  44  77 N9        30.17R
NEBRASKA CITY  CLOUDY    49  48  97 N12       30.19F
PLATTSMOUTH    DRIZZLE   48  45  88 N8        30.20F
$$

NEZ044-045-051>053-067-250900-
OMAHA AREA

CITY           SKY/WX    TMP DP  RH WIND       PRES   REMARKS
OMAHA EPPLEY   CLOUDY    47  44  90 N13       30.21R
BLAIR          CLOUDY    45  43  93 N10G17    30.21F
FREMONT        CLOUDY    46  43  90 N8        30.23F
MILLARD        CLOUDY    48  44  85 N7        30.22F
OFFUTT AFB     CLOUDY    48  44  85 N8        30.20F
PLATTSMOUTH    DRIZZLE   48  45  88 N8        30.20F
WAHOO          CLOUDY    46  42  87 N13       30.23F
$$




USA.gov is the U.S. government's official web portal to all federal, state and local government web resources and services.